| time (UTC) | temp C | wind direction | speed KPH | gust KPH | rain 1hr cm | rain 24hr cm | rain mn cm | humidity % | barometer mb |
| 20260504044107 | 18 | 255 | 3.2 | 6.4 | 0.00 | 0.00 | 0.00 | 49 | 1007.5 |
| 20260504043047 | 20 | 283 | 3.2 | 4.8 | 0.00 | 0.00 | 0.00 | 46 | 1007.6 |
| 20260504042027 | 20 | 139 | 0.0 | 4.8 | 0.00 | 0.00 | 0.00 | 43 | 1007.5 |
| 20260504041128 | 20 | 246 | 0.0 | 1.6 | 0.00 | 0.00 | 0.00 | 43 | 1007.5 |
| 20260504040028 | 21 | 0.0 | 0.0 | 0.00 | 0.00 | 0.00 | 45 | 1007.4 | |
| 20260504035028 | 21 | 236 | 0.0 | 3.2 | 0.00 | 0.00 | 0.00 | 42 | 1007.2 |
| 20260504034027 | 22 | 298 | 0.0 | 3.2 | 0.00 | 0.00 | 0.00 | 39 | 1007.1 |
| 20260504033028 | 22 | 35 | 0.0 | 1.6 | 0.00 | 0.00 | 0.00 | 40 | 1007.0 |
| 20260504032029 | 23 | 157 | 3.2 | 9.7 | 0.00 | 0.00 | 0.00 | 37 | 1006.9 |
| 20260504031028 | 24 | 143 | 1.6 | 8.0 | 0.00 | 0.00 | 0.00 | 38 | 1006.9 |
| 20260504030029 | 25 | 250 | 3.2 | 8.0 | 0.00 | 0.00 | 0.00 | 36 | 1006.8 |
| 20260504025028 | 26 | 194 | 0.0 | 3.2 | 0.00 | 0.00 | 0.00 | 36 | 1006.8 |
| 20260504024039 | 27 | 162 | 6.4 | 9.7 | 0.00 | 0.00 | 0.00 | 35 | 1006.8 |
| 20260504023029 | 28 | 171 | 1.6 | 8.0 | 0.00 | 0.00 | 0.00 | 35 | 1006.8 |
| 20260504022028 | 30 | 191 | 4.8 | 9.7 | 0.00 | 0.00 | 0.00 | 33 | 1006.9 |
| 20260504021029 | 30 | 177 | 3.2 | 8.0 | 0.00 | 0.00 | 0.00 | 30 | 1006.9 |
| 20260504020149 | 30 | 149 | 0.0 | 1.6 | 0.00 | 0.00 | 0.00 | 30 | 1007.0 |
| 20260504015029 | 31 | 100 | 4.8 | 12.9 | 0.00 | 0.00 | 0.00 | 29 | 1007.1 |
| 20260504014030 | 32 | 0.0 | 0.0 | 0.00 | 0.00 | 0.00 | 26 | 1007.2 | |
| 20260504013029 | 32 | 52 | 1.6 | 8.0 | 0.00 | 0.00 | 0.00 | 27 | 1007.3 |
| 20260504012050 | 32 | 109 | 1.6 | 6.4 | 0.00 | 0.00 | 0.00 | 28 | 1007.4 |
| 20260504011030 | 31 | 0.0 | 0.0 | 0.00 | 0.00 | 0.00 | 28 | 1007.5 | |
| 20260504010030 | 31 | 249 | 3.2 | 6.4 | 0.00 | 0.00 | 0.00 | 28 | 1007.6 |
| 20260504005030 | 31 | 244 | 6.4 | 8.0 | 0.00 | 0.00 | 0.00 | 29 | 1007.7 |
| 20260504004030 | 30 | 84 | 4.8 | 9.7 | 0.00 | 0.00 | 0.00 | 29 | 1007.9 |
| 20260504003030 | 30 | 46 | 1.6 | 8.0 | 0.00 | 0.00 | 0.00 | 30 | 1008.0 |
| 20260504002031 | 30 | 58 | 1.6 | 9.7 | 0.00 | 0.00 | 0.00 | 29 | 1008.1 |
| 20260504001030 | 30 | 46 | 8.0 | 17.7 | 0.00 | 0.00 | 0.00 | 31 | 1008.2 |
| 20260504000031 | 30 | 80 | 6.4 | 17.7 | 0.00 | 0.00 | 0.00 | 31 | 1008.3 |
| 20260503235031 | 30 | 47 | 1.6 | 8.0 | 0.00 | 0.00 | 0.00 | 30 | 1008.4 |
| 20260503234050 | 30 | 53 | 6.4 | 14.5 | 0.00 | 0.00 | 0.00 | 30 | 1008.5 |
| 20260503233031 | 30 | 178 | 4.8 | 12.9 | 0.00 | 0.00 | 0.00 | 30 | 1008.7 |
| 20260503232051 | 30 | 53 | 3.2 | 12.9 | 0.00 | 0.00 | 0.00 | 29 | 1008.8 |
| 20260503231031 | 30 | 73 | 0.0 | 3.2 | 0.00 | 0.00 | 0.00 | 29 | 1008.9 |
| 20260503230031 | 30 | 60 | 8.0 | 14.5 | 0.00 | 0.00 | 0.00 | 30 | 1009.0 |
| 20260503225032 | 30 | 310 | 1.6 | 9.7 | 0.00 | 0.00 | 0.00 | 30 | 1009.2 |
| 20260503224031 | 30 | 329 | 6.4 | 24.1 | 0.00 | 0.00 | 0.00 | 31 | 1009.3 |
| 20260503223051 | 30 | 284 | 3.2 | 11.3 | 0.00 | 0.00 | 0.00 | 31 | 1009.5 |
| 20260503222032 | 30 | 304 | 4.8 | 14.5 | 0.00 | 0.00 | 0.00 | 31 | 1009.5 |
| 20260503221032 | 30 | 251 | 1.6 | 9.7 | 0.00 | 0.00 | 0.00 | 29 | 1009.6 |
| 20260503220053 | 30 | 304 | 3.2 | 11.3 | 0.00 | 0.00 | 0.00 | 30 | 1009.8 |
| 20260503215034 | 30 | 299 | 3.2 | 9.7 | 0.00 | 0.00 | 0.00 | 29 | 1009.9 |
| 20260503214032 | 30 | 56 | 3.2 | 9.7 | 0.00 | 0.00 | 0.00 | 30 | 1010.1 |
| 20260503213032 | 29 | 59 | 4.8 | 19.3 | 0.00 | 0.00 | 0.00 | 31 | 1010.3 |
| 20260503212032 | 30 | 11 | 1.6 | 8.0 | 0.00 | 0.00 | 0.00 | 30 | 1010.4 |
| 20260503211053 | 29 | 305 | 1.6 | 8.0 | 0.00 | 0.00 | 0.00 | 30 | 1010.5 |
| 20260503210033 | 29 | 48 | 4.8 | 16.1 | 0.00 | 0.00 | 0.00 | 31 | 1010.6 |
| 20260503205052 | 28 | 252 | 6.4 | 12.9 | 0.00 | 0.00 | 0.00 | 30 | 1010.8 |
| 20260503204033 | 28 | 63 | 1.6 | 8.0 | 0.00 | 0.00 | 0.00 | 32 | 1011.0 |
| 20260503203033 | 28 | 47 | 8.0 | 22.5 | 0.00 | 0.00 | 0.00 | 34 | 1011.0 |
| 20260503202033 | 28 | 75 | 1.6 | 9.7 | 0.00 | 0.00 | 0.00 | 32 | 1011.1 |
| 20260503201033 | 27 | 34 | 4.8 | 16.1 | 0.00 | 0.00 | 0.00 | 33 | 1011.2 |
| 20260503200053 | 27 | 47 | 8.0 | 20.9 | 0.00 | 0.00 | 0.00 | 35 | 1011.4 |
| 20260503195034 | 27 | 44 | 4.8 | 19.3 | 0.00 | 0.00 | 0.00 | 36 | 1011.5 |
| 20260503194055 | 27 | 15 | 3.2 | 14.5 | 0.00 | 0.00 | 0.00 | 36 | 1011.7 |
| 20260503193033 | 27 | 121 | 3.2 | 11.3 | 0.00 | 0.00 | 0.00 | 36 | 1011.8 |
| 20260503192054 | 27 | 43 | 1.6 | 8.0 | 0.00 | 0.00 | 0.00 | 36 | 1011.9 |
| 20260503191034 | 26 | 58 | 3.2 | 9.7 | 0.00 | 0.00 | 0.00 | 39 | 1012.1 |
| 20260503190034 | 26 | 58 | 4.8 | 11.3 | 0.00 | 0.00 | 0.00 | 38 | 1012.2 |
| 20260503185034 | 26 | 64 | 3.2 | 9.7 | 0.00 | 0.00 | 0.00 | 38 | 1012.2 |
| 20260503184034 | 26 | 59 | 3.2 | 11.3 | 0.00 | 0.00 | 0.00 | 39 | 1012.3 |
| 20260503183034 | 26 | 116 | 1.6 | 6.4 | 0.00 | 0.00 | 0.00 | 38 | 1012.5 |
| 20260503182035 | 26 | 256 | 6.4 | 12.9 | 0.00 | 0.00 | 0.00 | 39 | 1012.5 |
| 20260503181034 | 26 | 269 | 4.8 | 11.3 | 0.00 | 0.00 | 0.00 | 39 | 1012.7 |
| 20260503180035 | 25 | 300 | 4.8 | 12.9 | 0.00 | 0.00 | 0.00 | 39 | 1012.8 |
| 20260503175035 | 24 | 291 | 6.4 | 14.5 | 0.00 | 0.00 | 0.00 | 42 | 1012.8 |
| 20260503174035 | 24 | 300 | 6.4 | 14.5 | 0.00 | 0.00 | 0.00 | 43 | 1012.9 |
| 20260503173035 | 23 | 308 | 3.2 | 11.3 | 0.00 | 0.00 | 0.00 | 44 | 1013.0 |
| 20260503172035 | 23 | 266 | 6.4 | 14.5 | 0.00 | 0.00 | 0.00 | 43 | 1013.1 |
| 20260503171036 | 23 | 273 | 6.4 | 12.9 | 0.00 | 0.00 | 0.00 | 44 | 1013.1 |
| 20260503131038 | 8 | 0.0 | 0.0 | 0.00 | 0.00 | 0.00 | 84 | 1013.0 | |
| 20260503081042 | 14 | 201 | 3.2 | 19.3 | 0.00 | 0.00 | 0.00 | 60 | 1012.8 |
| 20260503072042 | 15 | 250 | 1.6 | 4.8 | 0.00 | 0.00 | 0.00 | 61 | 1012.6 |
| 20260503071042 | 15 | 277 | 3.2 | 6.4 | 0.00 | 0.00 | 0.00 | 61 | 1012.4 |
| 20260503055103 | 15 | 301 | 1.6 | 4.8 | 0.00 | 0.00 | 0.00 | 63 | 1011.8 |
| 20260503054043 | 15 | 288 | 1.6 | 3.2 | 0.00 | 0.00 | 0.00 | 61 | 1011.9 |
| 20260503053103 | 15 | 282 | 1.6 | 4.8 | 0.00 | 0.00 | 0.00 | 59 | 1011.8 |
| 20260503052103 | 16 | 295 | 1.6 | 4.8 | 0.00 | 0.00 | 0.00 | 59 | 1011.8 |
| 20260503051043 | 16 | 193 | 1.6 | 4.8 | 0.00 | 0.00 | 0.00 | 58 | 1011.7 |
| 20260503050044 | 17 | 200 | 1.6 | 6.4 | 0.00 | 0.00 | 0.00 | 54 | 1011.7 |
| 20260503045047 | 17 | 299 | 0.0 | 3.2 | 0.00 | 0.00 | 0.00 | 54 | 1011.7 |